Terminal Aerodrome Forecast
Issued by NWS Detroit/Pontiac, MI

Home | Current Version | Previous Version | Text Only | Print | Product List | Glossary On
Versions: 1 2 3 4 5 6 7 8 9 10 11 12 13 14 15 16
356
FTUS43 KDTX 062332
TAFFNT
TAF
KFNT 062332Z 0700/0724 29006KT P6SM SKC
     FM070500 VRB03KT P6SM SCT150
     FM070800 19005KT P6SM -SHRA SCT050 BKN100
     FM071300 26010KT P6SM SHRA BKN045 OVC060 PROB30 0713/0717 2SM
      TSRA OVC025CB
     FM071700 33015G22KT P6SM BKN030=

USA.gov is the U.S. government's official web portal to all federal, state and local government web resources and services.